Tracking 30995 objects as of 5-Jul-2025
HD Live streaming from Space Station
objects crossing your sky now

GSTAR 4

Track GSTAR 4 now!
GSTAR 4 is classified as:


NORAD ID: 20946
Int'l Code: 1990-100B
Perigee: 36,096.6 km
Apogee: 36,130.1 km
Inclination: 14.0 °
Period: 1,452.5 minutes
Semi major axis: 42484 km
RCS: 8.7599 m2 (large)
Launch date: November 20, 1990
Source: United States (US)
Launch site: FRENCH GUIANA (FRGUI)
Your satellite tracking list
THORAD DELTA 1 DEB
Track 1 satellite(s)




NASA's NSSDC Master Catalog

Two Line Element Set (TLE):
1 20946U 90100B   25185.97212606 -.00000064  00000-0  00000-0 0  9996
2 20946  14.0401  12.6293 0003942 339.6990  14.0669  0.99142463 43363
Source of the keplerian elements: AFSPC